[[{"header":{"parameterUnit":"m.s-1","parameterCategory":1,"la1":30.2991,"la2":30.254,"lo1":-89.0895,"lo2":-89.0444,"dy":0.0017,"dx":0.0017,"nx":28,"ny":28,"refTime":"2025-04-01T09:00:00:Z","depth":0,"parameterNumber":2,"parameterNumberName":"U-component_of_WINDS"},"data":[0,0,0,0,0,0,0,0,0,0,0,0,0,0,0,0,0,0,0,0,0,0,0,0,0,0,0,0,0,0,0,0,0,0,0,0,0,0,0,0,0,0,0,0,0,0,0,0,0,0,0,0,0,0,0,0,0,0,-4.6458,-4.646,0,-4.6605,-4.6607,-4.6608,-4.6634,-4.6632,-4.6631,-4.663,-4.6779,-4.6784,-4.679,0,0,0,0,0,0,0,0,0,0,0,0,0,-4.62,-4.6205,-4.6458,-4.646,-4.6462,-4.6605,-4.6607,-4.6609,-4.6634,-4.6632,-4.6631,-4.6629,-4.6778,-4.6784,-4.679,0,0,0,0,0,0,0,0,0,0,0,0,0,-4.6326,-4.6206,-4.6458,-4.6492,-4.6496,-4.6604,-4.6607,-4.6609,-4.6634,-4.6632,-4.6631,-4.6629,-4.6776,-4.6783,-4.6791,-4.6875,0,0,-4.6814,-4.6818,0,0,0,0,0,0,0,0,-4.6319,-4.6336,-4.6485,-4.649,-4.6495,-4.6599,-4.6571,-4.6699,-4.6635,-4.6582,-4.663,-4.6628,-4.6721,-4.6733,-4.6765,-4.6882,-4.6889,-4.6815,-4.682,-4.6823,-4.6825,0,0,0,0,0,0,0,-4.631,-4.6329,-4.6516,-4.6487,-4.6493,-4.65,-4.6515,-4.6595,-4.666,-4.6586,-4.6588,-4.6606,-4.6723,-4.6757,-4.6768,-4.6891,-4.6815,-4.6822,-4.6826,-4.6829,-4.7086,-4.7088,0,0,0,0,0,0,-4.6295,-4.6322,-4.6512,-4.6521,-4.6401,-4.6506,-4.6524,-4.6568,-4.6659,-4.6671,-4.6607,-4.6606,-4.6745,-4.6759,-4.6774,-4.6878,-4.6823,-4.683,-4.6835,-4.7084,-4.7087,-4.7089,0,0,0,0,0,0,-4.629,-4.6312,-4.6506,-4.6422,-4.6447,-4.6512,-4.6561,-4.6571,-4.6605,-4.6675,-4.6686,-4.663,-4.6744,-4.6763,-4.685,-4.6884,-4.6834,-4.6841,-4.7081,-4.7085,-4.7088,-4.7089,0,0,0,0,0,0,-4.6282,-4.631,-4.6343,-4.6423,-4.6452,-4.658,-4.6564,-4.6576,-4.6619,-4.6619,-4.6699,-4.6711,-4.6744,-4.6838,-4.6858,-4.6894,-4.6847,-4.7078,-4.7083,-4.7087,-4.7086,-4.7092,-4.7096,0,0,0,0,0,-4.6273,-4.6337,-4.6344,-4.6367,-4.6494,-4.6582,-4.6598,-4.6635,-4.6621,-4.6655,-4.6699,-4.6708,-4.6878,-4.6847,-4.6869,-4.6908,-4.7076,-4.7082,-4.7086,-4.7083,-4.709,-4.7096,0,0,0,0,0,0,-4.6258,-4.6348,-4.6357,-4.6448,-4.6507,-4.6586,-4.6629,-4.6642,-4.6705,-4.6703,-4.6747,-4.6765,-4.6849,-4.6888,-4.6852,-4.6995,-4.6976,-4.6986,-4.6966,-4.6973,-4.6979,-4.6967,-4.6853,0,0,0,0,0,-4.6266,-4.633,-4.6405,-4.6478,-4.6507,-4.6563,-4.6603,-4.6627,-4.6689,-4.6714,-4.6765,-4.6825,-4.6892,-4.6935,-4.7001,-4.7092,-4.711,-4.713,-4.7135,-4.7139,-4.7146,-4.7197,-4.7207,-4.7105,-4.7105,-4.7105,0,0,-4.6282,-4.6339,-4.6376,-4.6477,-4.6525,-4.659,-4.6584,-4.6653,-4.6701,-4.6724,-4.681,-4.685,-4.692,-4.7009,-4.7052,-4.7044,-4.7179,-4.7145,-4.7148,-4.7153,-4.7203,-4.7213,-4.7222,-4.7109,-4.7108,-4.7107,0,0,-4.6344,-4.6394,-4.646,-4.6509,-4.6583,-4.662,-4.6636,-4.6713,-4.674,-4.6827,-4.6845,-4.6904,-4.7019,-4.7068,-4.7108,-4.719,-4.72,-4.7211,-4.7237,-4.7287,-4.7295,-4.7302,-4.7331,-4.7341,-4.7218,-4.7218,-4.7218,0,-4.6354,-4.6453,-4.6493,-4.6562,-4.6605,-4.663,-4.6698,-4.6743,-4.6834,-4.6864,-4.6854,-4.6999,-4.7048,-4.7149,-4.7169,-4.7202,-4.7221,-4.7201,-4.7291,-4.7298,-4.7306,-4.7333,-4.7344,-4.7219,-4.7219,-4.7218,-4.7218,0,-4.6462,-4.6531,-4.6576,-4.6663,-4.6712,-4.678,-4.683,-4.6875,-4.6895,-4.6933,-4.7021,-4.7081,-4.7159,-4.7185,-4.7206,-4.729,-4.7283,-4.7282,-4.7263,-4.7315,-4.7342,-4.7353,-4.722,-4.7219,-4.7219,-4.7219,0,0,-4.6518,-4.6627,-4.6643,-4.6683,-4.6767,-4.682,-4.689,-4.6966,-4.7003,-4.7066,-4.7125,-4.7222,-4.7221,-4.7267,-4.7293,-4.7337,-4.7397,-4.733,-4.7332,-4.7339,-4.7494,-4.7493,-4.7505,-4.7406,-4.7408,-4.741,-4.7487,0,-4.6589,-4.6713,-4.6751,-4.6855,-4.6918,-4.6943,-4.7004,-4.7062,-4.7099,-4.7159,-4.7201,-4.7268,-4.7263,-4.7291,-4.7335,-4.738,-4.7429,-4.7376,-4.746,-4.7462,-4.744,-4.7519,-4.7518,-4.7589,-4.7498,-4.75,-4.7501,0,-4.6688,-4.6752,-4.6862,-4.6938,-4.6966,-4.702,-4.7093,-4.715,-4.7216,-4.7241,-4.7292,-4.7315,-4.7389,-4.7368,-4.7469,-4.7432,-4.747,-4.7497,-4.7501,-4.7509,-4.7484,-4.7528,-4.7612,-4.7622,-4.7518,-4.7517,-4.7516,0,-4.6716,-4.683,-4.6911,-4.6945,-4.7035,-4.7072,-4.7112,-4.7177,-4.722,-4.7285,-4.7314,-4.7386,-4.7425,-4.7481,-4.7523,-4.7504,-4.7621,-4.7603,-4.7643,-4.7642,-4.7665,-4.7662,-4.7755,-4.7691,-4.7691,-4.7691,-4.769,0,-4.679,-4.6856,-4.6925,-4.6974,-4.7049,-4.7093,-4.7166,-4.7207,-4.7264,-4.7322,-4.7349,-4.7403,-4.7456,-4.7517,-4.755,-4.7629,-4.7647,-4.7668,-4.7676,-4.7665,-4.7662,-4.7689,-4.7684,-4.7693,-4.7693,-4.7692,-4.7692,0,-4.6834,-4.6882,-4.6971,-4.705,-4.7072,-4.7123,-4.7191,-4.724,-4.728,-4.7352,-4.7372,-4.7434,-4.7507,-4.7555,-4.7648,-4.7671,-4.7756,-4.7764,-4.7734,-4.7737,-4.7773,-4.7769,-4.7885,-4.7902,-4.7828,-4.7828,-4.7829,0,-4.6877,-4.6929,-4.7013,-4.7054,-4.7094,-4.7159,-4.7204,-4.725,-4.7296,-4.7376,-4.7415,-4.749,-4.7552,-4.7668,-4.7721,-4.7793,-4.7801,-4.7837,-4.7812,-4.7799,-4.7801,-4.7796,-4.7802,-4.7841,-4.7841,-4.7842,-4.7842,0,-4.6949,-4.6971,-4.7035,-4.7107,-4.716,-4.7219,-4.7279,-4.7311,-4.7367,-4.7417,-4.7492,-4.7541,-4.7636,-4.771,-4.7787,-4.7828,-4.7844,-4.785,-4.7863,-4.7851,-4.7831,-4.7841,-4.7743,-4.7847,-4.7846,-4.7846,-4.7846,-4.7845,-4.6994,-4.7041,-4.7107,-4.7178,-4.7227,-4.7282,-4.7332,-4.7378,-4.7442,-4.7523,-4.7546,-4.7625,-4.7691,-4.7795,-4.7838,-4.79,-4.7896,-4.7914,-4.7919,-4.7922,-4.7922,-4.7823,-4.7914,-4.7914,-4.7914,-4.7914,-4.7914,0,-4.7067,-4.7111,-4.7175,-4.7257,-4.7313,-4.7324,-4.7391,-4.7436,-4.7505,-4.7565,-4.7626,-4.7712,-4.7785,-4.7844,-4.7918,-4.7956,-4.7966,-4.7974,-4.7971,-4.798,-4.7922,-4.7903,-4.7965,-4.7965,-4.7965,-4.7965,-4.7965,-4.7965,-4.7111,-4.719,-4.722,-4.7325,-4.7369,-4.7446,-4.7483,-4.7534,-4.7582,-4.7677,-4.7737,-4.7776,-4.7836,-4.7915,-4.7982,-4.7997,-4.8023,-4.803,-4.8047,-4.799,-4.7984,-4.7979,-4.7961,-4.8035,-4.8035,-4.81,-4.81,-4.8101]},{"header":{"parameterUnit":"m.s-1","parameterCategory":1,"la1":30.2991,"la2":30.254,"lo1":-89.0895,"lo2":-89.0444,"dy":0.0017,"dx":0.0017,"nx":28,"ny":28,"refTime":"2025-04-01T09:00:00:Z","depth":0,"parameterNumber":3,"parameterNumberName":"V-component_of_WINDS"},"data":[0,0,0,0,0,0,0,0,0,0,0,0,0,0,0,0,0,0,0,0,0,0,0,0,0,0,0,0,0,0,0,0,0,0,0,0,0,0,0,0,0,0,0,0,0,0,0,0,0,0,0,0,0,0,0,0,0,0,6.8875,6.8876,0,6.8931,6.8931,6.8932,6.8882,6.888,6.8878,6.8876,6.8929,6.8932,6.8936,0,0,0,0,0,0,0,0,0,0,0,0,0,6.8724,6.8727,6.8875,6.8876,6.8877,6.8931,6.8931,6.8932,6.8882,6.888,6.8877,6.8875,6.8928,6.8932,6.8936,0,0,0,0,0,0,0,0,0,0,0,0,0,6.8785,6.8728,6.8875,6.8858,6.8857,6.8931,6.8931,6.8932,6.8883,6.888,6.8877,6.8874,6.8927,6.8932,6.8937,6.9028,0,0,6.8952,6.8954,0,0,0,0,0,0,0,0,6.8782,6.8791,6.886,6.886,6.8859,6.8896,6.8897,6.8964,6.8884,6.8873,6.8876,6.8872,6.8921,6.8926,6.8943,6.9031,6.9033,6.8952,6.8955,6.8957,6.8959,0,0,0,0,0,0,0,6.8778,6.8788,6.8897,6.8861,6.886,6.8847,6.8853,6.891,6.8913,6.8874,6.887,6.8878,6.892,6.8938,6.8944,6.9034,6.8952,6.8956,6.896,6.8961,6.9201,6.9204,0,0,0,0,0,0,6.8776,6.8785,6.8895,6.8899,6.8812,6.8852,6.8859,6.8887,6.8912,6.8913,6.888,6.8875,6.8931,6.8938,6.8945,6.9055,6.8957,6.8962,6.8965,6.9198,6.9202,6.9205,0,0,0,0,0,0,6.8773,6.8786,6.8893,6.8841,6.8854,6.8858,6.8891,6.889,6.8909,6.8917,6.8917,6.8899,6.8929,6.8938,6.9009,6.9057,6.8964,6.8969,6.9194,6.9199,6.9203,6.9276,0,0,0,0,0,0,6.8768,6.8785,6.882,6.8842,6.8857,6.8956,6.8894,6.8893,6.8918,6.8912,6.8935,6.8936,6.8927,6.9001,6.9014,6.9062,6.8973,6.9189,6.9196,6.9202,6.9269,6.9283,6.9294,0,0,0,0,0,6.8763,6.8837,6.8822,6.8836,6.8901,6.8959,6.8967,6.8957,6.8922,6.8957,6.8963,6.8935,6.9049,6.9009,6.9022,6.9073,6.9186,6.9194,6.9201,6.9263,6.928,6.9294,0,0,0,0,0,0,6.8819,6.884,6.8823,6.8907,6.8932,6.8951,6.8995,6.8975,6.9009,6.9002,6.8987,6.8993,6.9067,6.9076,6.9031,6.9163,6.9112,6.9123,6.9155,6.917,6.9183,6.9179,6.8977,0,0,0,0,0,6.8842,6.8888,6.8903,6.8975,6.8989,6.899,6.9015,6.9005,6.903,6.904,6.905,6.9075,6.9116,6.9143,6.9182,6.927,6.9275,6.9311,6.9324,6.9334,6.9344,6.9392,6.9409,6.923,6.923,6.923,0,0,6.8888,6.8905,6.8934,6.8987,6.9005,6.9053,6.8999,6.9051,6.9087,6.9047,6.9115,6.9124,6.915,6.923,6.9265,6.924,6.9394,6.9344,6.9352,6.9356,6.9402,6.9419,6.9434,6.9235,6.9235,6.9234,0,0,6.8997,6.9014,6.9077,6.9097,6.9126,6.9126,6.9142,6.9164,6.9169,6.9237,6.9208,6.925,6.9321,6.9341,6.9361,6.948,6.9456,6.9493,6.9558,6.9606,6.962,6.9633,6.9676,6.9692,6.9502,6.9502,6.9502,0,6.905,6.9122,6.9111,6.9167,6.9191,6.9159,6.9223,6.9242,6.9282,6.9299,6.927,6.9361,6.9376,6.9461,6.949,6.9507,6.9524,6.949,6.9619,6.9632,6.9643,6.9684,6.9701,6.9506,6.9506,6.9505,6.9505,0,6.9187,6.9238,6.9285,6.9326,6.9356,6.9415,6.9413,6.9444,6.9432,6.9436,6.9506,6.9523,6.9565,6.9584,6.9572,6.9669,6.9652,6.9622,6.957,6.9665,6.9703,6.9719,6.9513,6.9511,6.951,6.9509,0,0,6.9332,6.9368,6.9386,6.9405,6.9435,6.9474,6.9532,6.9575,6.9602,6.963,6.9679,6.9741,6.9714,6.9736,6.9726,6.9768,6.9863,6.9733,6.9733,6.9757,6.9971,6.9995,7.0013,6.9847,6.985,6.9852,6.9969,0,6.9444,6.9546,6.9539,6.9635,6.9683,6.9653,6.9704,6.9728,6.9733,6.9773,6.9778,6.9823,6.9783,6.9796,6.9836,6.9843,6.9906,6.9834,6.9892,6.9894,6.9888,7.0033,7.0058,7.0168,6.9984,6.9987,6.9989,0,6.9587,6.9623,6.9725,6.975,6.9769,6.9815,6.9855,6.9893,6.992,6.992,6.9947,6.993,6.9989,6.9936,7.0016,6.9968,6.9991,6.9998,7.0002,7.0007,6.9948,7.0044,7.0202,7.0219,7.0012,7.001,7.0009,0,6.9685,6.9758,6.9829,6.9846,6.9876,6.9909,6.9923,6.9947,6.9974,7.0008,7.0025,7.0065,7.0087,7.0118,7.0113,7.0075,7.0196,7.0142,7.0198,7.0199,7.0225,7.0224,7.0391,7.0239,7.0239,7.0238,7.0238,0,6.981,6.9874,6.9873,6.9917,6.9988,6.9979,7.0048,7.0058,7.008,7.0125,7.0101,7.0144,7.0134,7.0176,7.0172,7.024,7.0249,7.0252,7.025,7.0255,7.0255,7.027,7.0263,7.0243,7.0242,7.0241,7.024,0,6.9931,6.9933,7.0009,7.0032,7.004,7.0091,7.0111,7.0152,7.0155,7.0212,7.0225,7.0231,7.0279,7.0277,7.0331,7.0329,7.0413,7.0402,7.0405,7.0403,7.046,7.0455,7.0643,7.0668,7.0499,7.0501,7.0502,0,7.0012,7.0061,7.009,7.0119,7.0136,7.0183,7.0211,7.0203,7.0233,7.0268,7.0305,7.0352,7.0389,7.0468,7.0476,7.0518,7.0508,7.0571,7.0514,7.0518,7.051,7.0508,7.0513,7.0583,7.0584,7.0586,7.0587,0,7.0155,7.0154,7.0196,7.0239,7.0274,7.0307,7.0337,7.0362,7.0358,7.0392,7.0443,7.0472,7.0528,7.0575,7.0615,7.0629,7.0608,7.0605,7.0621,7.0626,7.0627,7.0629,7.0436,7.0601,7.06,7.0599,7.0598,7.0597,7.0259,7.0302,7.033,7.0378,7.04,7.0429,7.047,7.048,7.0522,7.0568,7.0561,7.0618,7.0644,7.0696,7.0713,7.0757,7.0734,7.0756,7.0762,7.0768,7.0775,7.0619,7.0764,7.0763,7.0763,7.0763,7.0762,0,7.0403,7.042,7.0464,7.0508,7.0546,7.0524,7.0557,7.0589,7.064,7.0667,7.0704,7.0763,7.0808,7.0821,7.0865,7.0897,7.0889,7.0909,7.0907,7.0911,7.0792,7.0775,7.0915,7.0915,7.0915,7.0915,7.0915,7.0915,7.0482,7.0553,7.0556,7.0639,7.0655,7.0711,7.0732,7.0759,7.078,7.0847,7.0886,7.0894,7.0915,7.0961,7.1002,7.1004,7.1022,7.1046,7.1045,7.0934,7.0919,7.0904,7.0888,7.105,7.105,7.116,7.1161,7.1162]}]]